CST,Max TemperatureF,Mean TemperatureF,Min TemperatureF,Max Dew PointF,MeanDew PointF,Min DewpointF,Max Humidity, Mean Humidity, Min Humidity, Max Sea Level PressureIn, Mean Sea Level PressureIn, Min Sea Level PressureIn, Max VisibilityMiles, Mean VisibilityMiles, Min VisibilityMiles, Max Wind SpeedMPH, Mean Wind SpeedMPH, Max Gust SpeedMPH,PrecipitationIn, CloudCover, Events, WindDirDegrees
2011-11-1,71,53,35,42,36,31,100,62,23,30.32,30.26,30.22,10,10,8,8,2,13,0.00,0,,110
2011-11-2,72,55,37,39,35,27,92,56,20,30.35,30.26,30.18,10,10,10,12,3,16,0.00,0,,138
2011-11-3,66,56,46,59,47,37,100,80,59,30.17,30.02,29.93,10,8,1,17,7,25,0.21,6,Rain,265
2011-11-4,64,54,43,46,41,38,86,65,44,30.14,30.07,29.99,10,10,8,16,7,22,0.00,3,,337
2011-11-5,68,54,39,45,39,30,96,65,34,30.27,30.20,30.14,10,8,5,12,3,15,0.00,0,,116
2011-11-6,68,56,43,50,43,33,83,66,49,30.39,30.31,30.25,10,10,10,9,4,15,0.00,2,,94
2011-11-7,75,61,46,52,49,44,93,66,38,30.34,30.27,30.20,10,10,10,14,3,18,0.00,3,,117
2011-11-8,77,67,57,52,50,49,72,55,38,30.21,30.14,30.07,10,10,10,15,4,18,0.00,4,,137
2011-11-9,72,60,48,63,56,43,100,83,66,30.10,30.04,30.01,10,7,1,14,5,18,0.17,6,Rain,272
2011-11-10,58,45,32,41,30,21,82,55,27,30.20,30.16,30.09,10,10,10,18,7,25,0.00,0,,330
2011-11-11,62,45,28,33,28,21,92,59,25,30.28,30.22,30.19,10,10,10,10,1,15,0.00,0,,230
2011-11-12,63,47,30,35,31,28,92,60,27,30.31,30.24,30.17,10,10,10,12,4,16,0.00,0,,172
2011-11-13,74,64,54,58,49,31,78,57,35,30.18,30.11,30.04,10,10,10,17,8,26,0.00,2,,164
2011-11-14,74,68,62,67,63,57,100,84,68,30.08,30.02,29.97,10,8,2,16,8,24,0.12,8,Rain,175
2011-11-15,71,69,67,70,66,64,100,94,87,29.99,29.94,29.86,10,6,1,12,6,20,0.34,8,Rain,171
2011-11-16,77,67,57,70,64,51,97,83,69,29.98,29.84,29.75,10,7,1,16,7,22,0.73,8,Rain-Thunderstorm,199
2011-11-17,57,46,35,50,31,19,82,54,26,30.36,30.21,30.00,10,10,10,18,8,26,0.02,2,Rain,339
2011-11-18,60,47,33,34,27,19,61,45,29,30.42,30.33,30.26,10,10,10,13,5,20,0.00,0,,101
2011-11-19,68,58,47,53,45,26,72,57,42,30.31,30.25,30.19,10,10,9,14,5,18,0.00,7,,139
2011-11-20,69,63,56,63,59,53,100,89,78,30.29,30.25,30.22,10,6,0,10,2,14,0.00,6,Fog,159
2011-11-21,77,66,54,64,59,54,100,80,60,30.29,30.22,30.09,10,4,0,13,2,16,0.00,5,Fog,193
2011-11-22,75,65,54,66,61,53,100,87,73,30.10,30.00,29.92,10,9,2,20,6,33,0.23,6,Rain-Thunderstorm,199
2011-11-23,62,54,45,61,51,41,100,78,55,30.28,30.12,30.01,10,10,10,16,6,23,0.00,5,,321
2011-11-24,67,51,35,43,39,35,100,66,32,30.37,30.32,30.28,10,9,6,8,2,13,0.00,0,,77
2011-11-25,70,53,35,47,41,34,92,66,40,30.35,30.27,30.19,10,10,10,15,4,21,0.00,0,,133
2011-11-26,75,63,50,54,51,47,86,66,46,30.21,30.12,29.99,10,10,10,17,7,25,T,5,,137
2011-11-27,65,57,48,63,57,46,100,84,67,29.96,29.91,29.86,10,4,1,16,6,23,2.23,8,Rain,253
2011-11-28,48,43,37,46,39,34,100,93,85,29.89,29.84,29.81,10,6,1,12,6,18,0.58,8,Rain,265
2011-11-29,41,38,35,36,35,33,100,90,79,30.11,29.96,29.85,10,9,5,14,7,20,0.07,8,Rain,261
2011-11-30,49,40,30,36,33,28,100,75,50,30.22,30.15,30.08,10,9,8,13,4,18,0.00,5,,306